Tracking 29892 objects as of 21-Nov-2024
HD Live streaming from Space Station
objects crossing your sky now

STARLINK-2629

Track STARLINK-2629 now!
10-day predictions
STARLINK-2629 is classified as:


NORAD ID: 48686
Int'l Code: 2021-044BA
Perigee: 553.2 km
Apogee: 555.2 km
Inclination: 53.1 °
Period: 95.6 minutes
Semi major axis: 6925 km
RCS: Unknown
Launch date: May 26, 2021
Source: United States (US)
Launch site: AIR FORCE EASTERN TEST RANGE (AFETR)
Your satellite tracking list
Your tracking list is empty




NASA's NSSDC Master Catalog

Two Line Element Set (TLE):
1 48686U 21044BA  24325.26101688  .00026156  00000-0  17662-2 0  9995
2 48686  53.0532  46.6899 0001395  67.9967 292.1170 15.06444322192821
Source of the keplerian elements: AFSPC